Weather History for Perry, FL

Change the Weather History Date:

Tuesday, July 30, 2013

  Actual Average (KCTY) Record (KCTY)
Temperature  
Mean Temperature 81 °F 82 °F  
Max Temperature 93 °F 91 °F 98 °F (2010)
Min Temperature 71 °F 72 °F 66 °F (2014)
Degree Days  
Heating Degree Days 0 0  
Month to date heating degree days 0  
Since 1 June heating degree days 0  
Since 1 July heating degree days 0  
Cooling Degree Days 16 17  
Month to date cooling degree days 494  
Year to date cooling degree days 1420  
Since 1 June cooling degree days 941  
Growing Degree Days 31 (Base 50)    
Moisture  
Dew Point 72 °F    
Average Humidity 79    
Maximum Humidity 100    
Minimum Humidity 52    
Precipitation  
Precipitation 0.09 in 0.21 in 0.92 in (2008)
Month to date precipitation 5.46  
Year to date precipitation 27.72  
Sea Level Pressure  
Sea Level Pressure 30.14 in    
Wind  
Wind Speed 1 mph (SSW)    
Max Wind Speed 21 mph    
Max Gust Speed 26 mph    
Visibility 8 miles    
Events Rain , Thunderstorm    
T = Trace of Precipitation, MM = Missing Value Source: NWS Daily Summary

Daily Weather History Graph

Daily Weather History Graph

Search for Another Location

Airport:

Trip Planner

Search our weather history database for the weather conditions in past years. The results will help you decide how hot, cold, wet, or windy it might be!

Date:

Astronomy

Jul. 30, 2013 Rise Set
Actual Time 6:52 AM EDT 8:28 PM EDT
Civil Twilight 6:26 AM EDT 8:54 PM EDT
Nautical Twilight 5:54 AM EDT 9:26 PM EDT
Astronomical Twilight 5:21 AM EDT 9:58 PM EDT
Moon 1:05 AM EDT 2:49 PM EDT
Length of Visible Light 14h 28m
Length of Day
13h 36m
Last Quarter, 41% of the Moon is Illuminated
Jul 30
Last Quarter
Aug 6
New
Aug 14
First Quarter
Aug 20
Full
Aug 28
Last Quarter

Hourly Weather History & Observations

Time (EDT) Temp. Heat Index Dew Point Humidity Pressure Visibility Wind Dir Wind Speed Gust Speed Precip Events Conditions
12:15 AM 73.4 °F - 71.6 °F 94% 30.15 in 7.0 mi Calm Calm - N/A   Clear
12:35 AM 73.4 °F - 71.6 °F 94% 30.15 in 10.0 mi Calm Calm - N/A   Clear
12:53 AM 75.9 °F - 73.0 °F 91% 30.14 in - Calm Calm - N/A   Unknown
12:55 AM 73.4 °F - 71.6 °F 94% 30.15 in 7.0 mi Calm Calm - N/A   Clear
1:15 AM 73.4 °F - 71.6 °F 94% 30.16 in 7.0 mi Calm Calm - N/A   Clear
1:35 AM 73.4 °F - 71.6 °F 94% 30.15 in 4.0 mi Calm Calm - N/A   Clear
1:53 AM 75.0 °F - 73.0 °F 94% 30.13 in - Calm Calm - N/A   Unknown
1:55 AM 73.4 °F - 71.6 °F 94% 30.14 in 5.0 mi Calm Calm - N/A   Clear
2:15 AM 71.6 °F - 71.6 °F 100% 30.15 in 7.0 mi Calm Calm - N/A   Clear
2:35 AM 71.6 °F - 71.6 °F 100% 30.14 in 4.0 mi Calm Calm - N/A   Clear
2:53 AM 73.9 °F - 72.0 °F 93% 30.13 in - Calm Calm - N/A   Unknown
2:55 AM 73.4 °F - 71.6 °F 94% 30.14 in 5.0 mi Calm Calm - N/A   Clear
3:15 AM 71.6 °F - 71.6 °F 100% 30.14 in 3.0 mi Calm Calm - N/A   Clear
3:35 AM 71.6 °F - 69.8 °F 94% 30.13 in 1.8 mi Calm Calm - N/A   Mist
3:53 AM 73.0 °F - 71.1 °F 93% 30.11 in - Calm Calm - N/A   Unknown
3:55 AM 71.6 °F - 69.8 °F 94% 30.13 in 5.0 mi Calm Calm - N/A   Clear
4:15 AM 71.6 °F - 71.6 °F 100% 30.13 in 5.0 mi Calm Calm - N/A   Clear
4:35 AM 71.6 °F - 69.8 °F 94% 30.13 in 1.8 mi Calm Calm - N/A   Mist
4:53 AM 73.9 °F - 72.0 °F 93% 30.12 in - ESE 4.6 mph - N/A   Unknown
4:55 AM 71.6 °F - 71.6 °F 100% 30.13 in 4.0 mi ESE 3.5 mph - N/A   Clear
5:15 AM 73.4 °F - 71.6 °F 94% 30.13 in 7.0 mi Calm Calm - N/A   Mostly Cloudy
5:35 AM 71.6 °F - 71.6 °F 100% 30.14 in 5.0 mi Calm Calm - N/A   Scattered Clouds
5:53 AM 73.9 °F - 72.0 °F 93% 30.14 in - Calm Calm - N/A   Unknown
5:55 AM 71.6 °F - 71.6 °F 100% 30.15 in 5.0 mi Calm Calm - N/A   Scattered Clouds
6:15 AM 73.4 °F - 71.6 °F 94% 30.15 in 5.0 mi Calm Calm - N/A   Scattered Clouds
6:35 AM 71.6 °F - 71.6 °F 100% 30.16 in 5.0 mi Calm Calm - N/A   Scattered Clouds
6:53 AM 73.9 °F - 72.0 °F 93% 30.15 in - Calm Calm - N/A   Unknown
6:55 AM 71.6 °F - 71.6 °F 100% 30.16 in 4.0 mi Calm Calm - N/A   Scattered Clouds
7:15 AM 71.6 °F - 71.6 °F 100% 30.17 in 1.5 mi Calm Calm - N/A   Mist
7:35 AM 71.6 °F - 71.6 °F 100% 30.17 in 1.5 mi Calm Calm - N/A   Mist
7:53 AM 75.9 °F - 73.0 °F 91% 30.17 in - Calm Calm - N/A   Unknown
7:55 AM 73.4 °F - 71.6 °F 94% 30.18 in 2.5 mi Calm Calm - N/A   Clear
8:15 AM 73.4 °F - 73.4 °F 100% 30.19 in 5.0 mi Calm Calm - N/A   Clear
8:35 AM 77.0 °F - 73.4 °F 89% 30.20 in 5.0 mi Calm Calm - N/A   Clear
8:53 AM 81.0 °F 86.7 °F 75.0 °F 82% 30.18 in - Calm Calm - N/A   Unknown
8:55 AM 77.0 °F - 75.2 °F 94% 30.19 in 7.0 mi Calm Calm - N/A   Clear
9:15 AM 78.8 °F - 77.0 °F 94% 30.20 in 10.0 mi Calm Calm - N/A   Clear
9:35 AM 80.6 °F 87.1 °F 77.0 °F 89% 30.20 in 10.0 mi Calm Calm - N/A   Scattered Clouds
9:53 AM 84.0 °F 91.9 °F 75.0 °F 74% 30.18 in - Calm Calm - N/A   Unknown
9:55 AM 80.6 °F 86.2 °F 75.2 °F 84% 30.19 in 10.0 mi Calm Calm - N/A   Clear
10:15 AM 80.6 °F 86.2 °F 75.2 °F 84% 30.19 in 10.0 mi Calm Calm - N/A   Scattered Clouds
10:35 AM 82.4 °F 88.2 °F 73.4 °F 74% 30.19 in 10.0 mi Calm Calm - N/A   Scattered Clouds
10:53 AM 87.1 °F 95.4 °F 73.9 °F 65% 30.17 in - ESE 3.5 mph - N/A   Unknown
10:55 AM 86.0 °F 93.4 °F 73.4 °F 66% 30.19 in 10.0 mi East 3.5 mph - N/A   Scattered Clouds
11:15 AM 86.0 °F 91.8 °F 71.6 °F 62% 30.19 in 10.0 mi Calm Calm - N/A   Mostly Cloudy
11:35 AM 86.0 °F 91.8 °F 71.6 °F 62% 30.18 in 10.0 mi Calm Calm - N/A   Scattered Clouds
11:53 AM 90.0 °F 99.0 °F 73.9 °F 59% 30.17 in - Calm Calm - 0.01 in   Unknown
11:55 AM 86.0 °F 93.4 °F 73.4 °F 66% 30.18 in 10.0 mi Calm Calm - N/A   Scattered Clouds
12:15 PM 87.8 °F 95.6 °F 73.4 °F 62% 30.18 in 10.0 mi WNW 5.8 mph - N/A   Scattered Clouds
12:53 PM 89.1 °F 96.0 °F 72.0 °F 57% 30.16 in - Calm Calm - N/A   Unknown
12:55 PM 87.8 °F 93.8 °F 71.6 °F 58% 30.17 in 10.0 mi Calm Calm - N/A   Scattered Clouds
1:15 PM 87.8 °F 92.6 °F 69.8 °F 55% 30.17 in 10.0 mi Calm Calm - N/A   Mostly Cloudy
1:35 PM 87.8 °F 92.6 °F 69.8 °F 55% 30.16 in 10.0 mi ENE 3.5 mph - N/A   Mostly Cloudy
1:53 PM 91.0 °F 99.3 °F 73.0 °F 55% 30.14 in - WSW 3.5 mph - N/A   Unknown
2:15 PM 89.6 °F 94.7 °F 69.8 °F 52% 30.15 in 10.0 mi Calm Calm - N/A   Mostly Cloudy
2:35 PM 87.8 °F 92.6 °F 69.8 °F 55% 30.14 in 10.0 mi Calm Calm - N/A   Mostly Cloudy
2:53 PM 91.0 °F 98.2 °F 72.0 °F 53% 30.12 in - West 3.5 mph - N/A   Unknown
2:55 PM 89.6 °F 94.7 °F 69.8 °F 52% 30.13 in 10.0 mi West 3.5 mph - N/A   Scattered Clouds
3:15 PM 91.4 °F 98.4 °F 71.6 °F 52% 30.12 in 10.0 mi Calm Calm - N/A   Clear
3:35 PM 89.6 °F 96.2 °F 71.6 °F 55% 30.12 in 10.0 mi Calm Calm - N/A   Clear
3:53 PM 91.0 °F 98.2 °F 72.0 °F 53% 30.10 in - WSW 3.5 mph - N/A   Unknown
3:55 PM 89.6 °F 94.7 °F 69.8 °F 52% 30.11 in 10.0 mi West 3.5 mph - N/A   Mostly Cloudy
4:15 PM 84.2 °F 90.9 °F 73.4 °F 70% 30.11 in 2.5 mi NW 4.6 mph - 0.07 in Rain Light Rain
4:35 PM 86.0 °F 93.4 °F 73.4 °F 66% 30.10 in 7.0 mi Calm Calm - 0.08 in Rain Light Rain
4:53 PM 89.1 °F 99.1 °F 75.0 °F 63% 30.08 in - SW 4.6 mph - 0.06 in   Unknown
4:55 PM 87.8 °F 95.6 °F 73.4 °F 62% 30.09 in 10.0 mi WSW 3.5 mph - 0.08 in   Scattered Clouds
5:15 PM 86.0 °F 95.1 °F 75.2 °F 70% 30.09 in 10.0 mi WNW 6.9 mph - N/A   Clear
5:35 PM 86.0 °F 93.4 °F 73.4 °F 66% 30.08 in 10.0 mi West 4.6 mph - N/A   Clear
5:53 PM 90.0 °F 97.9 °F 73.0 °F 57% 30.06 in - WSW 5.8 mph - N/A   Unknown
5:55 PM 87.8 °F 93.8 °F 71.6 °F 58% 30.08 in 10.0 mi WSW 5.8 mph - N/A   Clear
6:15 PM 87.8 °F 92.6 °F 69.8 °F 55% 30.09 in 10.0 mi WSW 8.1 mph - N/A   Clear
6:35 PM 87.8 °F 92.6 °F 69.8 °F 55% 30.10 in 10.0 mi SW 8.1 mph - N/A Thunderstorm Clear
6:53 PM 89.1 °F 96.0 °F 72.0 °F 57% 30.10 in - SW 4.6 mph - N/A   Unknown
6:55 PM 87.8 °F 92.6 °F 69.8 °F 55% 30.11 in 10.0 mi SSW 4.6 mph - N/A Thunderstorm Thunderstorm
7:15 PM 86.0 °F 90.4 °F 69.8 °F 58% 30.11 in 10.0 mi NNE 4.6 mph - N/A Thunderstorm Thunderstorm
7:35 PM 86.0 °F 91.8 °F 71.6 °F 62% 30.11 in 10.0 mi Calm Calm - N/A   Clear
7:53 PM 86.0 °F 93.8 °F 73.9 °F 67% 30.11 in - SE 3.5 mph - N/A   Unknown
7:55 PM 84.2 °F 89.6 °F 71.6 °F 66% 30.13 in 10.0 mi SE 3.5 mph - N/A Thunderstorm Clear
8:15 PM 80.6 °F 83.9 °F 69.8 °F 70% 30.15 in 10.0 mi East 20.7 mph 26.5 mph N/A   Mostly Cloudy
8:35 PM 75.2 °F - 69.8 °F 83% 30.16 in 10.0 mi ESE 12.7 mph 25.3 mph N/A   Mostly Cloudy
8:53 PM 77.0 °F - 71.1 °F 82% 30.14 in - ESE 10.4 mph - N/A   Unknown
8:55 PM 73.4 °F - 69.8 °F 88% 30.15 in 10.0 mi ESE 9.2 mph 16.1 mph N/A Thunderstorm Scattered Clouds
9:15 PM 75.2 °F - 69.8 °F 83% 30.15 in 10.0 mi Calm Calm - N/A Rain Light Rain
9:35 PM 75.2 °F - 69.8 °F 83% 30.14 in 10.0 mi Calm Calm - N/A   Scattered Clouds
9:53 PM 77.0 °F - 72.0 °F 84% 30.13 in - ESE 3.5 mph - N/A   Unknown
9:55 PM 75.2 °F - 71.6 °F 89% 30.14 in 10.0 mi Calm Calm - N/A   Scattered Clouds
10:15 PM 75.2 °F - 71.6 °F 89% 30.14 in 10.0 mi Calm Calm - N/A   Clear
10:35 PM 73.4 °F - 71.6 °F 94% 30.15 in 10.0 mi Calm Calm - N/A   Clear
10:53 PM 75.9 °F - 72.0 °F 87% 30.14 in - Calm Calm - N/A   Unknown
10:55 PM 73.4 °F - 71.6 °F 94% 30.15 in 10.0 mi Calm Calm - N/A   Clear
11:15 PM 73.4 °F - 71.6 °F 94% 30.16 in 10.0 mi Calm Calm - N/A   Clear
11:35 PM 73.4 °F - 71.6 °F 94% 30.15 in 10.0 mi Calm Calm - N/A   Scattered Clouds
11:53 PM 75.9 °F - 71.1 °F 85% 30.14 in - Calm Calm - N/A   Unknown
11:55 PM 73.4 °F - 71.6 °F 94% 30.15 in 10.0 mi Calm Calm - N/A   Clear